FENGYUN 1C DEB, 31952

Orbit data source: Space-Track

FENGYUN 1C DEB, 31952 is space debris in SSO originally from a launch on Mon, 10 May 1999 UTC launched from the Taiyaun Space Center, China (TSC). Fengyun 1C debris stems from the Chinese weather satellite Fengyun-1C, which was intentionally destroyed by a Chinese anti-satellite missile in 2007. This event dramatically increased the amount of space debris, with thousands of trackable fragments posing hazards to satellites and human spaceflight. The Fengyun 1C debris cloud has become a focal point in discussions about space sustainability and the need for international regulations to prevent the creation of new debris.

Loading next visibility...
Identifier
31952, 1999-025CND
Orbit
SSO
Country
Flag of CNCN / PRC
Related business
Manufacturer
Unknown
Mission
Spacecraft
Bus & Motor
Unknown
Mass
Unknown
Launch date (UTC)
1999-05-10 (27 years ago)
Launch vehicle
Unknown
Launch site
Taiyaun Space Center, China (TSC)
Object type
Payload
Rocket body
Debris
Shape & HBR
Unknown shape, 0.1 m
Radar Cross Section
Medium (>0.1 m² and <1 m²)

Expand to show TLE details & history
Last TLE update: 19 hours ago

TLE from 19 hours ago
0 FENGYUN 1C DEB
1 31952U 99025CND 26150.82422368  .00003160  00000-0  69453-3 0  9994
2 31952  98.9736 284.7897 0114243 141.0667 219.8825 14.54325826996660
Epoch: 2026-05-30T19:46Z
TLE epoch observation values (Epoch: 2026-05-30T19:46:52.925Z)
Latitude
-0°
Longitude
99.73447°
Altitude
777.049 km
Speed
7.432 km/s
True Right ascension
18h 59m 09s
True Declination
0° 00' 00"
Sunlit
Object was in full shadow at epoch
Visualization orbit readout
Latitude
Unknown
Longitude
Unknown
Altitude
Unknown
Speed
Unknown
Apparent Right ascension
Unknown
Apparent Declination
Unknown
Sunlit
N/A
Visualization observer readout
Local Sidereal Time
00:26:24
Azimuth
Unknown
Elevation
Unknown
Doppler factor
Unknown
Orbital elements
Apogee altitude
789.642 km
Perigee altitude
627.718 km
Semi-major axis
7,086.817 km
Eccentricity
0.01142
Inclination
98.9736°
RAAN
284.7897°
Arg. of periapsis
141.0667°
True anomaly
219.0522°
Mean anomaly
219.8825°
Eccentric anomaly
219.46644°
Mean motion
3.63803 °/min
Orbital period
98.95 mins
BSTAR
0.00069453
Loading maneuver chart data...
Computing Atmospheric mass density...
Loading historical data...
Loading historical data...
Loading historical data...
Loading historical data...
Loading historical data...
Loading historical data...
Loading historical data...

Documentation

Showing up to 5 results
|